Weather History for Kununurra, WE

Change the Weather History Date:

Friday, August 9, 2013

  Actual Average Record
Temperature  
Mean Temperature 70 °F -  
Max Temperature 93 °F - - ()
Min Temperature 48 °F - - ()
Cooling Degree Days 6    
Growing Degree Days 20 (Base 50)    
Moisture  
Dew Point 35 °F    
Average Humidity 40    
Maximum Humidity 87    
Minimum Humidity 4    
Precipitation  
Precipitation 0.00 in - - ()
Sea Level Pressure  
Sea Level Pressure 29.91 in    
Wind  
Wind Speed 3 mph ()    
Max Wind Speed 14 mph    
Max Gust Speed -    
Visibility 12.0 miles    
Events      
T = Trace of Precipitation, MM = Missing Value Source: Averaged Metar Reports

Daily Weather History Graph

Daily Weather History Graph

Search for Another Location

Airport:

Trip Planner

Search our weather history database for the weather conditions in past years. The results will help you decide how hot, cold, wet, or windy it might be!

Date:

Astronomy

Aug. 09, 2013 Rise Set
Actual Time 5:45 AM WST 5:15 PM WST
Civil Twilight 5:23 AM WST 5:38 PM WST
Nautical Twilight 4:57 AM WST 6:03 PM WST
Astronomical Twilight 4:32 AM WST 6:29 PM WST
Moon 6:58 AM WST (8/9) 7:13 PM WST (8/9)
Length of Visible Light 12h 14m
Length of Day
11h 30m
Waxing Crescent, 5% of the Moon is Illuminated
Aug 9
Waxing Crescent
Aug 14
First Quarter
Aug 21
Full
Aug 28
Last Quarter
Sep 5
New

Hourly Weather History & Observations

Time (WST) Temp. Dew Point Humidity Pressure Visibility Wind Dir Wind Speed Gust Speed Precip Events Conditions
12:00 AM 54 °F 44 °F 61% 29.93 in - Calm Calm - -  
12:00 AM 53.6 °F 44.6 °F 72% 29.92 in - Calm Calm - N/A   Unknown
12:30 AM 53.6 °F 42.8 °F 67% 29.92 in - Calm Calm - N/A   Unknown
1:00 AM 53.6 °F 44.6 °F 72% 29.92 in - ENE 3.5 mph - N/A   Unknown
1:30 AM 51.8 °F 42.8 °F 71% 29.92 in - SSE 3.5 mph - N/A   Unknown
2:00 AM 53 °F 45 °F 65% 29.92 in - South 3.5 mph - -  
2:00 AM 53.6 °F 44.6 °F 72% 29.92 in - South 3.5 mph - N/A   Unknown
2:30 AM 53.6 °F 48.2 °F 82% 29.92 in - South 3.5 mph - N/A   Unknown
3:00 AM 53 °F 47 °F 75% 29.92 in - SSE 2.3 mph - -  
3:00 AM 53.6 °F 48.2 °F 82% 29.92 in - SSE 2.3 mph - N/A   Unknown
3:30 AM 50.0 °F 44.6 °F 82% 29.92 in - Calm Calm - N/A   Unknown
4:00 AM 48.2 °F 44.6 °F 87% 29.92 in - Calm Calm - N/A   Unknown
4:30 AM 48.2 °F 42.8 °F 82% 29.95 in - Calm Calm - N/A   Unknown
5:00 AM 49 °F 44 °F 77% 29.95 in - Calm Calm - -  
5:00 AM 50.0 °F 44.6 °F 82% 29.95 in - Calm Calm - N/A   Unknown
5:30 AM 48.2 °F 44.6 °F 87% 29.95 in - Calm Calm - N/A   Unknown
6:00 AM 50 °F 44 °F 73% 29.97 in 12 mi Calm Calm - -   Partly Cloudy
6:00 AM 50.0 °F 44.6 °F 82% 29.98 in - Calm Calm - N/A   Unknown
6:30 AM 53.6 °F 42.8 °F 67% 29.98 in - Calm Calm - N/A   Unknown
7:00 AM 62.6 °F 55.4 °F 77% 29.98 in - Calm Calm - N/A   Unknown
7:30 AM 68.0 °F 44.6 °F 43% 29.98 in - Calm Calm - N/A   Unknown
8:00 AM 74 °F 30 °F 11% 30.01 in - South 2.3 mph - -  
8:00 AM 73.4 °F 30.2 °F 20% 30.01 in - South 2.3 mph - N/A   Unknown
8:30 AM 78.8 °F 30.2 °F 17% 30.01 in - South 4.6 mph - N/A   Unknown
9:00 AM 84 °F 17 °F 4% 30.00 in 12 mi ESE 11.5 mph - -   Partly Cloudy
9:00 AM 84.2 °F 17.6 °F 8% 30.01 in - ESE 11.5 mph - N/A   Unknown
9:30 AM 86.0 °F 14.0 °F 7% 29.98 in - East 12.7 mph - N/A   Unknown
10:00 AM 87.8 °F 12.2 °F 6% 29.98 in - ESE 12.7 mph - N/A   Unknown
10:30 AM 87.8 °F 17.6 °F 8% 29.95 in - East 10.4 mph - N/A   Unknown
11:00 AM 90 °F 14 °F 4% 29.95 in - ESE 11.5 mph - -  
11:00 AM 89.6 °F 14.0 °F 6% 29.95 in - ESE 11.5 mph - N/A   Unknown
11:30 AM 89.6 °F 12.2 °F 6% 29.92 in - ENE 9.2 mph - N/A   Unknown
12:00 PM 90 °F 20 °F 4% 29.92 in - East 8.1 mph - -  
12:00 PM 91.4 °F 21.2 °F 8% 29.92 in - East 8.1 mph - N/A   Unknown
12:30 PM 89.6 °F 19.4 °F 8% 29.89 in - SSE 5.8 mph - N/A   Unknown
1:00 PM 91.4 °F 8.6 °F 5% 29.89 in - ESE 13.8 mph - N/A   Unknown
1:30 PM 91.4 °F 14.0 °F 6% 29.86 in - SSE 6.9 mph - N/A   Unknown
2:00 PM 91 °F 15 °F 4% 29.86 in - SSE 5.8 mph - -  
2:00 PM 91.4 °F 15.8 °F 6% 29.86 in - SSE 5.8 mph - N/A   Unknown
2:30 PM 91.4 °F 12.2 °F 5% 29.83 in - SE 5.8 mph - N/A   Unknown
3:00 PM 92 °F 16 °F 4% 29.84 in 12 mi East 5.8 mph - -   Partly Cloudy
3:00 PM 91.4 °F 15.8 °F 6% 29.83 in - East 5.8 mph - N/A   Unknown
3:30 PM 91.4 °F 15.8 °F 6% 29.83 in - South 5.8 mph - N/A   Unknown
4:00 PM 91.4 °F 19.4 °F 7% 29.83 in - South 4.6 mph - N/A   Unknown
4:30 PM 89.6 °F 17.6 °F 7% 29.83 in - SE 4.6 mph - N/A   Unknown
5:00 PM 87 °F 33 °F 7% 29.85 in - Calm Calm - -  
5:00 PM 86.0 °F 32.0 °F 14% 29.83 in - Calm Calm - N/A   Unknown
5:30 PM 78.8 °F 41.0 °F 26% 29.86 in - South 5.8 mph - N/A   Unknown
6:00 PM 73 °F 49 °F 31% 29.86 in - ESE 3.5 mph - -  
6:00 PM 73.4 °F 48.2 °F 41% 29.86 in - ESE 3.5 mph - N/A   Unknown
6:30 PM 71.6 °F 42.8 °F 35% 29.86 in - ESE 4.6 mph - N/A   Unknown
7:00 PM 68.0 °F 48.2 °F 49% 29.89 in - SSE 2.3 mph - N/A   Unknown
7:30 PM 66.2 °F 46.4 °F 49% 29.89 in - Calm Calm - N/A   Unknown
8:00 PM 64 °F 47 °F 43% 29.90 in - SE 1.2 mph - -  
8:00 PM 64.4 °F 46.4 °F 52% 29.89 in - SE 1.2 mph - N/A   Unknown
8:30 PM 62.6 °F 50.0 °F 63% 29.89 in - ESE 2.3 mph - N/A   Unknown
9:00 PM 61 °F 43 °F 41% 29.91 in - NW 5.8 mph - -  
9:00 PM 60.8 °F 42.8 °F 52% 29.89 in - NW 5.8 mph - N/A   Unknown
9:30 PM 62.6 °F 41.0 °F 45% 29.89 in - North 6.9 mph - N/A   Unknown
10:00 PM 62.6 °F 41.0 °F 45% 29.89 in - North 5.8 mph - N/A   Unknown
10:30 PM 59.0 °F 48.2 °F 67% 29.89 in - North 3.5 mph - N/A   Unknown
11:00 PM 58 °F 48 °F 60% 29.91 in - Calm Calm - -  
11:00 PM 59.0 °F 48.2 °F 67% 29.89 in - Calm Calm - N/A   Unknown
11:30 PM 59.0 °F 46.4 °F 63% 29.89 in - Calm Calm - N/A   Unknown